Meteopurmerend
purmerend
Purmerend - Baaienwijk



My webcam  My webcam


waarschuwing voor Onweer Meer informatie blitzortung!


Regen radar Meer informatie rain snow radar


Bezoek onze andere website:

CandyAppleRed WebdesignWebdesign Purmerend Candy Apple Red

MeteopurmerendBlog

Template documentation
and downloads



Onweer van: 26-07-2021 13:00 tot: 21:00 waarschuwing voor: Onweer niveau: Geel info button
Enkele onweersbuien, lokaal met hagel en veel neerslag in korte tijd.Kans op blikseminslag, hagel en veel neerslag in korte tijd.Verkeer en buitenactiviteiten kunnen hinder ondervinden.Mijd open water en open gebied, schuil niet onder bomen.Volg weerberichten en waarschuwingen.

15 daagse weersverwachting Dendermonde (BE)

  • Overzicht
  • Per uur
  • 15 dagen
  • Extra
  • Vergelijk
  • Kaarten
  • Dagkaart
  • Meer »
  • Info
  • Statistieken
  • Directe link
    Temp 6h Neerslag Wind  
 06:03     21:38    Daglengte: 15:35 Vandaag
20:00
19°
4.8 mm
3
 06:04     21:37    Daglengte: 15:33 Morgen
02:00
17°
 
3
08:00
16°
 
3
14:00
21°
2.6 mm
5
warningclass
20:00
18°
1.7 mm
4
warningclass
 06:06     21:35    Daglengte: 15:29 Woensdag 28 Jul
02:00
16°
 
4
08:00
16°
 
6
14:00
20°
17.3 mm
8
20:00
19°
21.3 mm
6
 06:07     21:34    Daglengte: 15:27 Donderdag 29 Jul
02:00
15°
13.1 mm
6
08:00
14°
4.3 mm
7
Locatie info
Region: Flandern
Latitude: 51.0316°N
Longitude: 4.0979°E
6 masl
Postcode: 9200
Temp/Neerslag /Baro Onweer/Dauwpunt
    Temp Baro 1h Neerslag Dauwpunt Wind UV Bewolking  
 06:03     21:38    Daglengte: 15:35 Vandaag
16:00
19°
1010.0 hPa 0.9 mm
82%
16.9°
4
Windvlaag: 4.8 m/s
81% warningclass
17:00
19°
1010.2 hPa 1.2 mm
82%
16.8°
4
Windvlaag: 4.4 m/s
73% warningclass
18:00
19°
1010.3 hPa 1.3 mm
82%
16.7°
3
Windvlaag: 1.7 m/s
80% warningclass
19:00
19°
1010.3 hPa
81%
16.7°
3
Windvlaag: 2.1 m/s
44%
20:00
19°
1010.4 hPa
78%
16.3°
3
Windvlaag: 2.8 m/s
17%
21:00
18°
1010.8 hPa
72%
15.9°
2
Windvlaag: 2.6 m/s
19%
22:00
17°
1011.3 hPa
21%
15.9°
2
Windvlaag: 2.4 m/s
44%
23:00
17°
1011.6 hPa
19%
15.8°
2
Windvlaag: 2 m/s
23%
 06:04     21:37    Daglengte: 15:33 Morgen
00:00
16°
1011.7 hPa
21%
15.9°
2
Windvlaag: 3.6 m/s
16%
01:00
17°
1011.5 hPa
14%
15.8°
2
Windvlaag: 4.2 m/s
20%
02:00
17°
1011.5 hPa
14%
15.2°
3
Windvlaag: 5 m/s
11%
03:00
16°
1011.4 hPa
14%
14.8°
3
Windvlaag: 5.3 m/s
4%
04:00
15°
1011.2 hPa
14%
14.3°
3
Windvlaag: 5.6 m/s
25%
05:00
15°
1010.9 hPa
14%
14.2°
3
Windvlaag: 5.2 m/s
41%
06:00
15°
1010.7 hPa
14%
14.3°
3
Windvlaag: 5.7 m/s
70%
07:00
16°
1010.8 hPa
18%
14.7°
3
Windvlaag: 6.1 m/s
73%
08:00
16°
1010.8 hPa
15%
15.2°
3
Windvlaag: 6.2 m/s
72%
09:00
17°
1011.0 hPa
16%
15.7°
4
Windvlaag: 6.1 m/s
84%
10:00
19°
1011.1 hPa
15%
15.8°
4
Windvlaag: 5.7 m/s
72%
11:00
20°
1011.0 hPa
16%
16.0°
4
Windvlaag: 5.4 m/s
58%
12:00
20°
1010.9 hPa
81%
15.0°
4
Windvlaag: 5.5 m/s
81%
13:00
21°
1010.4 hPa 1.1 mm
81%
14.3°
4
Windvlaag: 5.4 m/s
43% warningclass
14:00
21°
1010.6 hPa 1.5 mm
77%
17.6°
5
Windvlaag: 8.5 m/s
76% warningclass
15:00
20°
1010.3 hPa
82%
17.8°
5
Windvlaag: 8.7 m/s
74%
16:00
20°
1010.0 hPa
82%
16.6°
5
Windvlaag: 8.4 m/s
68% warningclass
17:00
20°
1009.7 hPa 1.7 mm
82%
16.1°
5
Windvlaag: 8.4 m/s
76%
18:00
19°
1009.6 hPa
76%
16.4°
4
Windvlaag: 8.2 m/s
76%
19:00
19°
1009.5 hPa
33%
16.7°
4
Windvlaag: 5.9 m/s
62%
20:00
18°
1009.4 hPa
78%
16.7°
4
Windvlaag: 5 m/s
68%
21:00
18°
1009.5 hPa
80%
16.5°
3
Windvlaag: 6.2 m/s
67%
22:00
17°
1009.7 hPa
79%
16.5°
4
Windvlaag: 7 m/s
65%
23:00
17°
1010.0 hPa
82%
14.9°
4
Windvlaag: 7.4 m/s
59%
 06:06     21:35    Daglengte: 15:29 Woensdag 28 Jul
00:00
17°
1009.9 hPa
80%
14.7°
4
Windvlaag: 8.2 m/s
57%
01:00
16°
1009.6 hPa
82%
14.5°
4
Windvlaag: 8.7 m/s
75%
02:00
16°
1009.3 hPa
27%
14.4°
4
Windvlaag: 9.1 m/s
51%
03:00
16°
1009.1 hPa
61%
14.2°
4
Windvlaag: 8.6 m/s
43%
04:00
16°
1008.9 hPa
72%
14.1°
4
Windvlaag: 9.1 m/s
52%
05:00
16°
1008.7 hPa
60%
13.8°
4
Windvlaag: 8.9 m/s
53%
06:00
16°
1008.8 hPa
16%
13.7°
5
Windvlaag: 9 m/s
60%
07:00
16°
1008.9 hPa
82%
13.6°
6
Windvlaag: 8.8 m/s
54%
08:00
16°
1009.0 hPa
82%
13.7°
6
Windvlaag: 9.4 m/s
48%
09:00
16°
1009.1 hPa
81%
14.0°
7
Windvlaag: 10.5 m/s
42%
10:00
17°
1009.3 hPa
18%
14.1°
7
Windvlaag: 10.4 m/s
51%
11:00
18°
1009.0 hPa 4.3 mm
77%
13.6°
7
Windvlaag: 10.6 m/s
75%
12:00
19°
1009.1 hPa 4.0 mm
81%
13.7°
7
Windvlaag: 10.3 m/s
49%
13:00
19°
1009.1 hPa 4.3 mm
97%
13.1°
8
Windvlaag: 9.2 m/s
44%
14:00
20°
1009.1 hPa 4.6 mm
100%
12.7°
8
Windvlaag: 8.6 m/s
82%
15:00
20°
1009.5 hPa 2.8 mm
100%
11.9°
7
Windvlaag: 8.1 m/s
47%
16:00
20°
1009.5 hPa 2.8 mm
100%
12.7°
7
Windvlaag: 8.1 m/s
65%
17:00
20°
1009.6 hPa 3.1 mm
100%
11.2°
7
Windvlaag: 8.5 m/s
48%
18:00
20°
1009.1 hPa 4.2 mm
89%
9.3°
7
Windvlaag: 8.4 m/s
31%
19:00
20°
1009.0 hPa 4.2 mm
100%
11.2°
7
Windvlaag: 9.1 m/s
15%
20:00
19°
1009.0 hPa 4.2 mm
24%
10.2°
6
Windvlaag: 8.9 m/s
31%
21:00
18°
1009.2 hPa
21%
8.8°
6
Windvlaag: 7.9 m/s
37%
22:00
17°
1009.4 hPa 4.4 mm
21%
11.2°
5
Windvlaag: 8.5 m/s
75%
23:00
16°
1009.5 hPa 4.3 mm
21%
11.4°
5
Windvlaag: 8.2 m/s
77%
 06:07     21:34    Daglengte: 15:27 Donderdag 29 Jul
00:00
16°
1009.3 hPa 4.3 mm
21%
12.2°
5
Windvlaag: 7.7 m/s
42%
01:00
15°
1009.0 hPa
21%
11.8°
6
Windvlaag: 9.9 m/s
57%
02:00
15°
1008.6 hPa
21%
12.2°
6
Windvlaag: 10.8 m/s
76%
03:00
15°
1008.3 hPa
21%
12.8°
6
Windvlaag: 11.2 m/s
67%
04:00
14°
1008.2 hPa
22%
12.5°
6
Windvlaag: 11.3 m/s
56%
05:00
14°
1008.2 hPa
23%
12.6°
6
Windvlaag: 10.7 m/s
55%
06:00
14°
1008.5 hPa
21%
12.3°
6
Windvlaag: 10.7 m/s
63%
07:00
14°
1008.7 hPa 4.3 mm
21%
11.7°
6
Windvlaag: 10.3 m/s
68%
08:00
14°
1009.1 hPa
21%
11.5°
7
Windvlaag: 10.6 m/s
73%
09:00
16°
1010.5 hPa
21%
11.9°
6
Windvlaag: 14.3 m/s
69%
10:00
17°
1010.6 hPa
21%
11.6°
7
Windvlaag: 12.8 m/s
45%
11:00
18°
1010.8 hPa
21%
10.5°
7
Windvlaag: 13.2 m/s
39%
12:00
19°
1010.9 hPa
21%
10.2°
8
Windvlaag: 13.7 m/s
20%
13:00
19°
1011.0 hPa
21%
10.4°
8
Windvlaag: 13.9 m/s
43%
14:00
20°
1011.0 hPa
21%
10.8°
8
Windvlaag: 14 m/s
62%
Temp/Neerslag /Baro Onweer/Dauwpunt
    Temp Baro Neerslag Dauwpunt Wind Bewolking  
 06:03     21:38    Daglengte: 15:35 Vandaag
17:00
19°
1010.2 hPa 3.5 mm 16.8°
4
73% warningclass
20:00
19°
1010.4 hPa 1.3 mm 16.3°
3
17%
23:00
17°
1011.6 hPa   15.8°
2
23%
 06:04     21:37    Daglengte: 15:33 Morgen
02:00
17°
1011.5 hPa   15.2°
3
11%
05:00
15°
1010.9 hPa   14.2°
3
41%
08:00
16°
1010.8 hPa   15.2°
3
72%
11:00
20°
1011.0 hPa   16.0°
4
58%
14:00
21°
1010.6 hPa 2.6 mm 17.6°
5
76% warningclass
17:00
20°
1009.7 hPa 1.7 mm 16.1°
5
76%
20:00
18°
1009.4 hPa   16.7°
4
68%
23:00
17°
1010.0 hPa   14.9°
4
59%
 06:06     21:35    Daglengte: 15:29 Woensdag 28 Jul
02:00
16°
1009.3 hPa   14.4°
4
51%
05:00
16°
1008.7 hPa   13.8°
4
53%
08:00
16°
1009.0 hPa   13.7°
6
48%
11:00
18°
1009.0 hPa 4.3 mm 13.6°
7
75%
14:00
20°
1009.1 hPa 13.0 mm 12.7°
8
82%
17:00
20°
1009.6 hPa 8.6 mm 11.2°
7
48%
20:00
19°
1009.0 hPa 12.7 mm 10.2°
6
31%
23:00
16°
1009.5 hPa 8.7 mm 11.4°
5
77%
 06:07     21:34    Daglengte: 15:27 Donderdag 29 Jul
02:00
15°
1008.6 hPa 4.3 mm 12.2°
6
76%
05:00
14°
1008.2 hPa   12.6°
6
55%
08:00
14°
1009.1 hPa 4.3 mm 11.5°
7
73%
11:00
18°
1010.8 hPa   10.5°
7
39%
14:00
20°
1011.0 hPa   10.8°
8
62%
17:00
20°
1011.9 hPa 13.9 mm 11.6°
7
1%
20:00
18°
1012.1 hPa 13.9 mm 10.7°
7
1%
23:00
14°
1012.4 hPa 13.9 mm 9.4°
5
0%
 06:09     21:32    Daglengte: 15:23 Vrijdag 30 Jul
02:00
12°
1012.3 hPa 13.9 mm 9.5°
4
0%
05:00
11°
1011.9 hPa 13.9 mm 10.0°
4
0%
08:00
14°
1012.0 hPa 13.9 mm 11.1°
4
1%
11:00
19°
1011.4 hPa 13.9 mm 10.8°
4
1%
14:00
22°
1010.2 hPa 13.9 mm 12.2°
4
1%
17:00
23°
1008.6 hPa 13.9 mm 12.6°
3
1%
20:00
19°
1007.7 hPa 14.6 mm 14.8°
4
1%
23:00
16°
1008.5 hPa 15.4 mm 14.8°
3
1%
 06:10     21:31    Daglengte: 15:21 Zaterdag 31 Jul
02:00
14°
1008.2 hPa 15.4 mm 13.3°
3
1%
05:00
12°
1006.7 hPa 15.4 mm 10.5°
4
0%
08:00
14°
1005.8 hPa 15.4 mm 12.4°
7
0%
11:00
14°
1004.9 hPa 15.9 mm 12.1°
9
1%
14:00
18°
1004.9 hPa 17.4 mm 13.2°
10
1%
17:00
20°
1005.9 hPa 18.1 mm 11.1°
9
1%
20:00
19°
1007.4 hPa 18.1 mm 11.6°
5
0%
23:00
14°
1008.5 hPa 18.1 mm 12.6°
4
0%
 06:12     21:29    Daglengte: 15:17 Zondag 01 Aug
02:00
13°
1008.1 hPa 18.1 mm 12.5°
4
0%
05:00
13°
1007.4 hPa 18.2 mm 11.9°
5
0%
08:00
14°
1007.3 hPa 18.2 mm 12.7°
6
0%
11:00
18°
1008.1 hPa 18.6 mm 10.2°
7
1%
14:00
19°
1008.8 hPa 18.7 mm 8.6°
7
1%
17:00
19°
1009.7 hPa 18.8 mm 9.3°
7
1%
20:00
16°
1011.2 hPa 19.3 mm 11.4°
4
1%
23:00
13°
1013.2 hPa 19.3 mm 10.8°
3
0%
 06:13     21:27    Daglengte: 15:14 Maandag 02 Aug
02:00
11°
1014.2 hPa 19.3 mm 9.7°
2
0%
05:00
10°
1014.7 hPa 19.3 mm 9.0°
2
0%
08:00
13°
1015.6 hPa 19.3 mm 9.8°
2
0%
11:00
15°
1016.8 hPa 19.3 mm 10.7°
2
1%
14:00
17°
1016.4 hPa 38.8 mm 10.1°
1
1%
20:00
18°
1015.4 hPa 39.4 mm 12.9°
1
1%
 06:15     21:26    Daglengte: 15:11 Dinsdag 03 Aug
02:00
12°
1016.1 hPa 40.8 mm 10.2°
2
0%
08:00
12°
1016.5 hPa 40.8 mm 9.8°
4
1%
14:00
22°
1015.7 hPa 40.8 mm 10.1°
5
1%
20:00
20°
1014.4 hPa 40.8 mm 12.8°
4
1%
 06:16     21:24    Daglengte: 15:08 Woensdag 04 Aug
02:00
14°
1013.7 hPa 40.8 mm 13.0°
4
1%
08:00
15°
1012.1 hPa 40.8 mm 11.5°
5
1%
14:00
22°
1010.5 hPa 40.9 mm 12.5°
8
1%
20:00
19°
1010.0 hPa 42.0 mm 12.0°
7
1%
 06:18     21:22    Daglengte: 15:04 Donderdag 05 Aug
02:00
14°
1010.4 hPa 42.3 mm 12.2°
5
0%
08:00
14°
1009.3 hPa 42.3 mm 12.7°
5
1%
14:00
20°
1013.4 hPa 2.0 mm 13.2°
3
62%
20:00
19°
1012.7 hPa 1.4 mm 13.7°
2
59%
 06:19     21:21    Daglengte: 15:02 Vrijdag 06 Aug
02:00
15°
1012.9 hPa 0.4 mm 12.2°
3
54%
08:00
15°
1012.6 hPa 0.5 mm 12.7°
4
51%
14:00
21°
1013.0 hPa 0.7 mm 13.1°
5
52%
20:00
19°
1013.0 hPa 1.2 mm 13.0°
3
47%
 06:21     21:19    Daglengte: 14:58 Zaterdag 07 Aug
02:00
14°
1013.9 hPa 0.1 mm 12.0°
3
43%
08:00
15°
1013.6 hPa 0.7 mm 12.4°
3
51%
14:00
21°
1013.4 hPa 1.3 mm 13.3°
4
55%
20:00
19°
1013.1 hPa 1.3 mm 13.6°
3
64%
 06:22     21:17    Daglengte: 14:55 Zondag 08 Aug
02:00
14°
1013.7 hPa 0.7 mm 12.6°
2
50%
08:00
15°
1013.5 hPa 0.4 mm 12.9°
3
63%
14:00
20°
1013.9 hPa 1.2 mm 13.7°
4
64%
20:00
19°
1014.0 hPa 0.6 mm 13.2°
3
64%
 06:24     21:15    Daglengte: 14:51 Maandag 09 Aug
02:00
14°
1015.6 hPa 0.1 mm 11.8°
2
43%
08:00
14°
1016.1 hPa 0.2 mm 12.3°
3
38%
14:00
21°
1016.8 hPa 0.3 mm 12.8°
3
52%
20:00
19°
1016.5 hPa 0.8 mm 13.2°
2
50%
 06:25     21:13    Daglengte: 14:48 Dinsdag 10 Aug
02:00
15°
1017.5 hPa 0.3 mm 12.0°
2
49%
08:00
15°
1017.5 hPa 0.1 mm 12.4°
2
49%
14:00
22°
1017.7 hPa 0.4 mm 13.2°
3
54%
  CAPE Lifted Index Hail Supercell Tornado SRH 3km CL BTM PRES CL TOP PRES Swiss DWD icon SMHI TS
 06:03     21:38    Daglengte: 15:35 Vandaag
16:00 877 J/kg -3.4 K 0 % 0 % 0 % 0 m²/s² 0 0 -2.62 80
17:00 310 J/kg -1.8 K 0 % 0 % 0 % 0 m²/s² 0 0 -1.11 95
18:00 749 J/kg -2.7 K 0 % 0 % 0 % 0 m²/s² 0 0 -2.13 80
19:00 774 J/kg -2.9 K 0 % 0 % 0 % 0 m²/s² 0 0 -2 80
20:00 373 J/kg -1.5 K 0 % 0 % 0 % 0 m²/s² 0 0 -0.66 80
21:00 227 J/kg -1.2 K 0 % 0 % 0 % 0 m²/s² 0 0 -0.42 2
22:00 77 J/kg -0.4 K 0 % 0 % 0 % 0 m²/s² 0 0 1.07 3
23:00 97 J/kg -0.7 K 0 % 0 % 0 % 0 m²/s² 0 0 1.22 2
 06:04     21:37    Daglengte: 15:33 Morgen
00:00 88 J/kg -1.9 K 0 % 0 % 0 % 0 m²/s² 0 0 -0.16 2
01:00 29 J/kg -1.3 K 0 % 0 % 0 % 0 m²/s² 0 0 1.1 1
02:00 26 J/kg -0.3 K 0 % 0 % 0 % 0 m²/s² 0 0 2.34 2
03:00 0 J/kg 0.2 K 0 % 0 % 0 % 0 m²/s² 0 0 2.9 2
04:00 0 J/kg 0.2 K 0 % 0 % 0 % 0 m²/s² 0 0 3.23 3
05:00 0 J/kg 1.3 K 0 % 0 % 0 % 0 m²/s² 0 0 4.66 3
06:00 0 J/kg 0.4 K 0 % 0 % 0 % 0 m²/s² 0 0 4.15 3
07:00 0 J/kg -2.0 K 0 % 0 % 0 % 0 m²/s² 0 0 1.09 3
08:00 0 J/kg -2.3 K 0 % 0 % 0 % 0 m²/s² 0 0 -0.32 3
09:00 152 J/kg -2.1 K 0 % 0 % 0 % 0 m²/s² 0 0 -0.24 3
10:00 424 J/kg -2.4 K 0 % 0 % 0 % 0 m²/s² 0 0 -1.38 3
11:00 604 J/kg -2.6 K 0 % 0 % 0 % 0 m²/s² 0 0 -1.37 3
12:00 713 J/kg -2.9 K 0 % 0 % 0 % 0 m²/s² 0 0 -2.42 80
13:00 652 J/kg -2.6 K 0 % 0 % 0 % 0 m²/s² 0 0 -2.12 80
14:00 664 J/kg -2.8 K 0 % 0 % 0 % 0 m²/s² 0 0 -2.62 80
15:00 486 J/kg -1.5 K 0 % 0 % 0 % 0 m²/s² 0 0 -1.32 80
16:00 108 J/kg 0.1 K 0 % 0 % 0 % 0 m²/s² 0 0 0.28 95
17:00 542 J/kg -1.8 K 0 % 0 % 0 % 0 m²/s² 0 0 -1.41 80
18:00 649 J/kg -2.1 K 0 % 0 % 0 % 0 m²/s² 0 0 -1.71 3
19:00 829 J/kg -3.0 K 0 % 0 % 0 % 0 m²/s² 0 0 -2.61 3
20:00 758 J/kg -3.1 K 0 % 0 % 0 % 0 m²/s² 0 0 -2.59 3
21:00 682 J/kg -2.6 K 0 % 0 % 0 % 0 m²/s² 0 0 -1.94 3
22:00 550 J/kg -2.2 K 0 % 0 % 0 % 0 m²/s² 0 0 -1.81 61
23:00 470 J/kg -2.0 K 0 % 0 % 0 % 0 m²/s² 0 0 -1.22 3
 06:06     21:35    Daglengte: 15:29 Woensdag 28 Jul
00:00 247 J/kg -1.2 K 0 % 0 % 0 % 0 m²/s² 0 0 0.3 61
01:00 57 J/kg -0.5 K 0 % 0 % 0 % 0 m²/s² 0 0 1.75 61
02:00 0 J/kg 0.4 K 0 % 0 % 0 % 0 m²/s² 0 0 2.8 3
03:00 0 J/kg 0.8 K 0 % 0 % 0 % 0 m²/s² 0 0 2.81 3
04:00 0 J/kg 1.7 K 0 % 0 % 0 % 0 m²/s² 0 0 4.04 3
05:00 0 J/kg 3.3 K 0 % 0 % 0 % 0 m²/s² 0 0 6.09 3
06:00 0 J/kg 4.0 K 0 % 0 % 0 % 0 m²/s² 0 0 6.49 3
07:00 0 J/kg 3.9 K 0 % 0 % 0 % 0 m²/s² 0 0 6.24 3
08:00 0 J/kg 3.5 K 0 % 0 % 0 % 0 m²/s² 0 0 6.29 3
09:00 0 J/kg 3.3 K 0 % 0 % 0 % 0 m²/s² 0 0 6.87 80
10:00 35 J/kg 2.0 K 0 % 0 % 0 % 0 m²/s² 0 0 4.94 3
11:00 73 J/kg 1.6 K 0 % 0 % 0 % 0 m²/s² 0 0 3.73 3
12:00 114 J/kg 1.1 K 0 % 0 % 0 % 0 m²/s² 0 0 3.59 3
13:00 212 J/kg 0.4 K 0 % 0 % 0 % 0 m²/s² 0 0 3.01 2
14:00 252 J/kg -0.1 K 0 % 0 % 0 % 0 m²/s² 0 0 2.66 3
15:00 271 J/kg -0.2 K 0 % 0 % 0 % 0 m²/s² 0 0 2.71 80
16:00 349 J/kg -0.7 K 0 % 0 % 0 % 0 m²/s² 0 0 2.12 3
17:00 251 J/kg 0.1 K 0 % 0 % 0 % 0 m²/s² 0 0 3.1 2
18:00 45 J/kg 2.1 K 0 % 0 % 0 % 0 m²/s² 0 0 5.61 2
19:00 60 J/kg 2.3 K 0 % 0 % 0 % 0 m²/s² 0 0 6.29 1
20:00 73 J/kg 2.7 K 0 % 0 % 0 % 0 m²/s² 0 0 6.9 2
21:00 25 J/kg 4.3 K 0 % 0 % 0 % 0 m²/s² 0 0 5.08 1
22:00 0 J/kg 4.2 K 0 % 0 % 0 % 0 m²/s² 0 0 5.7 2
23:00 0 J/kg 6.1 K 0 % 0 % 0 % 0 m²/s² 0 0 6.49 2
 06:07     21:34    Daglengte: 15:27 Donderdag 29 Jul
00:00 0 J/kg 6.4 K 0 % 0 % 0 % 0 m²/s² 0 0 9.7 2
01:00 27 J/kg 6.3 K 0 % 0 % 0 % 0 m²/s² 0 0 8.94 2
02:00 70 J/kg 6.0 K 0 % 0 % 0 % 0 m²/s² 0 0 9.87 2
03:00 115 J/kg 6.3 K 0 % 0 % 0 % 0 m²/s² 0 0 11.28 2
04:00 73 J/kg 7.5 K 0 % 0 % 0 % 0 m²/s² 0 0 12.9 3
05:00 34 J/kg 8.0 K 0 % 0 % 0 % 0 m²/s² 0 0 13.25 3
06:00 8 J/kg 8.6 K 0 % 0 % 0 % 0 m²/s² 0 0 13.19 3
07:00 21 J/kg 8.6 K 0 % 0 % 0 % 0 m²/s² 0 0 12.83 3
08:00 69 J/kg 8.7 K 0 % 0 % 0 % 0 m²/s² 0 0 14.01 3
09:00 153 J/kg 7.6 K 0 % 0 % 0 % 0 m²/s² 0 0 12.76 3
10:00 186 J/kg 6.7 K 0 % 0 % 0 % 0 m²/s² 0 0 11.59 3
11:00 143 J/kg 5.8 K 0 % 0 % 0 % 0 m²/s² 0 0 8.98 2
12:00 110 J/kg 4.9 K 0 % 0 % 0 % 0 m²/s² 0 0 8.17 2
13:00 101 J/kg 3.4 K 0 % 0 % 0 % 0 m²/s² 0 0 7.96 3
14:00 114 J/kg 2.2 K 0 % 0 % 0 % 0 m²/s² 0 0 6.91 3
Temp Baro Wind Neerslag
  EWN Forecast EWN WRFDA DWD ICON FMI HIRLAM MET Norway GFS
 06:03     21:38    Daglengte: 15:35 Vandaag
17:00 18.8° 1010.2 hPa 3.9 m/s 3.5 mm 18.2° 1009.3 hPa 5.9 m/s 4.6 mm 18.6° 1010.5 hPa 4.3 m/s 2.6 mm 20.9° 1009.1 hPa 3.5 m/s 0.0 mm 21.0° 1009.6 hPa 5.0 m/s
20:00 18.5° 1010.4 hPa 2.7 m/s 1.3 mm 20.8° 1009.5 hPa 3.7 m/s 12.0 mm 18.1° 1010.6 hPa 2.7 m/s 1.3 mm 19.7° 1009.6 hPa 2.9 m/s 0.0 mm 20.0° 1010.1 hPa 3.0 m/s
23:00 16.6° 1011.6 hPa 1.6 m/s 0.0 mm 16.7° 1010.7 hPa 1.2 m/s 12.0 mm 16.6° 1012.0 hPa 1.8 m/s 0.2 mm 16.8° 1011.0 hPa 1.3 m/s 0.0 mm 16.5° 1011.1 hPa 1.5 m/s
 06:04     21:37    Daglengte: 15:33 Morgen
02:00 16.5° 1011.5 hPa 3.3 m/s 0.0 mm 15.2° 1010.3 hPa 2.6 m/s 12.0 mm 15.9° 1011.8 hPa 3.4 m/s 0.0 mm 16.8° 1010.8 hPa 3.0 m/s 0.0 mm 15.4° 1011.6 hPa 3.1 m/s
05:00 15.0° 1010.9 hPa 2.7 m/s 0.0 mm 14.5° 1009.6 hPa 3.0 m/s 12.0 mm 14.9° 1011.5 hPa 2.6 m/s 0.0 mm 14.9° 1010.1 hPa 3.0 m/s 0.0 mm 14.6° 1010.7 hPa 3.3 m/s
08:00 16.4° 1010.8 hPa 3.2 m/s 0.0 mm 17.0° 1009.5 hPa 3.5 m/s 12.0 mm 16.7° 1011.5 hPa 3.1 m/s 0.0 mm 16.1° 1009.9 hPa 3.2 m/s 0.0 mm 16.4° 1010.7 hPa 3.5 m/s
11:00 19.6° 1011.0 hPa 4.0 m/s 0.0 mm 20.2° 1010.1 hPa 2.8 m/s 12.1 mm 19.6° 1011.2 hPa 4.1 m/s 0.0 mm 20.8° 1010.2 hPa 4.1 m/s 0.0 mm 20.0° 1010.4 hPa 3.8 m/s
14:00 20.5° 1010.6 hPa 4.9 m/s 2.6 mm 21.7° 1010.0 hPa 2.9 m/s 13.8 mm 20.4° 1011.2 hPa 4.0 m/s 0.5 mm 21.3° 1009.1 hPa 5.1 m/s 0.0 mm 18.9° 1010.5 hPa 2.6 m/s
17:00 19.6° 1009.7 hPa 4.5 m/s 1.7 mm 21.2° 1009.0 hPa 4.5 m/s 19.4 mm 18.8° 1010.5 hPa 4.6 m/s 2.5 mm 19.7° 1008.2 hPa 3.8 m/s 0.0 mm 21.1° 1009.7 hPa 4.0 m/s
20:00 18.4° 1009.4 hPa 3.8 m/s 0.0 mm 18.8° 1008.5 hPa 2.9 m/s 25.6 mm 18.3° 1010.0 hPa 4.0 m/s 0.1 mm 18.7° 1008.8 hPa 3.9 m/s 0.0 mm 17.9° 1009.2 hPa 3.6 m/s
23:00 16.9° 1010.0 hPa 3.9 m/s 0.0 mm 17.0° 1008.8 hPa 2.9 m/s 34.8 mm 16.7° 1010.0 hPa 3.7 m/s 0.2 mm 17.6° 1010.5 hPa 3.8 m/s 0.0 mm 15.7° 1010.4 hPa 4.8 m/s
 06:06     21:35    Daglengte: 15:29 Woensdag 28 Jul
02:00 16.2° 1009.3 hPa 3.9 m/s 0.0 mm 15.7° 1008.3 hPa 4.0 m/s 35.1 mm 16.4° 1008.8 hPa 3.7 m/s 0.2 mm 15.8° 1010.4 hPa 3.0 m/s 0.0 mm 14.9° 1009.5 hPa 5.5 m/s
05:00 15.6° 1008.7 hPa 4.4 m/s 0.0 mm 14.3° 1007.7 hPa 3.6 m/s 35.1 mm 16.2° 1008.2 hPa 4.3 m/s 0.2 mm 15.7° 1009.4 hPa 4.2 m/s 0.0 mm 14.8° 1009.3 hPa 5.1 m/s
08:00 15.7° 1009.0 hPa 6.3 m/s 0.0 mm 14.9° 1008.4 hPa 6.1 m/s 35.1 mm 16.2° 1007.9 hPa 6.6 m/s 0.4 mm 15.5° 1009.9 hPa 6.4 m/s 0.0 mm 14.6° 1009.9 hPa 6.0 m/s
11:00 17.9° 1009.0 hPa 7.4 m/s 4.3 mm 18.5° 1008.2 hPa 7.2 m/s 35.2 mm 17.7° 1009.4 hPa 7.7 m/s 0.4 mm 17.8° 1010.0 hPa 8.1 m/s
14:00 19.8° 1009.1 hPa 7.7 m/s 13.0 mm 21.5° 1008.2 hPa 8.2 m/s 35.6 mm 19.9° 1009.2 hPa 7.7 m/s 0.1 mm 19.5° 1010.5 hPa 7.9 m/s
17:00 19.9° 1009.6 hPa 7.0 m/s 8.6 mm 21.9° 1008.5 hPa 7.7 m/s 36.8 mm 19.7° 1009.8 hPa 6.9 m/s 0.7 mm 21.5° 1009.4 hPa 7.8 m/s
20:00 19.1° 1009.0 hPa 6.0 m/s 12.7 mm 20.7° 1007.9 hPa 7.0 m/s 37.1 mm 19.2° 1009.0 hPa 5.9 m/s 0.1 mm 18.5° 1009.0 hPa 5.9 m/s
23:00 16.4° 1009.5 hPa 5.4 m/s 8.7 mm 16.9° 1008.5 hPa 5.5 m/s 37.5 mm 16.2° 1009.6 hPa 5.0 m/s 0.0 mm 16.1° 1009.2 hPa 6.3 m/s
 06:07     21:34    Daglengte: 15:27 Donderdag 29 Jul
02:00 15.1° 1008.6 hPa 5.7 m/s 4.3 mm 15.6° 1007.6 hPa 5.4 m/s 38.2 mm 15.1° 1009.5 hPa 5.4 m/s 0.0 mm 14.2° 1009.3 hPa 7.0 m/s
05:00 14.4° 1008.2 hPa 5.8 m/s 0.0 mm 13.3° 1007.4 hPa 5.3 m/s 38.2 mm 14.9° 1009.8 hPa 5.3 m/s 0.0 mm 12.9° 1009.5 hPa 6.9 m/s
08:00 14.5° 1009.1 hPa 6.9 m/s 4.3 mm 14.4° 1007.5 hPa 7.2 m/s 38.2 mm 15.2° 1010.8 hPa 5.2 m/s 0.0 mm 13.7° 1009.9 hPa 7.9 m/s
11:00 18.1° 1010.8 hPa 7.4 m/s 0.0 mm 18.3° 1008.0 hPa 9.0 m/s 38.2 mm 18.0° 1011.5 hPa 6.9 m/s 0.0 mm 17.8° 1011.3 hPa 8.5 m/s
14:00 19.8° 1011.0 hPa 7.8 m/s 0.0 mm 19.9° 1008.6 hPa 10.1 m/s 38.2 mm 19.8° 1011.6 hPa 7.2 m/s 0.0 mm 19.9° 1011.7 hPa 7.9 m/s
17:00 19.8° 1011.9 hPa 7.3 m/s 13.9 mm 19.8° 1011.9 hPa 7.3 m/s 13.9 mm
20:00 18.0° 1012.1 hPa 6.9 m/s 13.9 mm 18.0° 1012.1 hPa 6.9 m/s 13.9 mm
23:00 14.1° 1012.4 hPa 4.8 m/s 13.9 mm 14.1° 1012.4 hPa 4.8 m/s 13.9 mm
 06:09     21:32    Daglengte: 15:23 Vrijdag 30 Jul
02:00 12.3° 1012.3 hPa 4.1 m/s 13.9 mm 12.3° 1012.3 hPa 4.1 m/s 13.9 mm
05:00 11.3° 1011.9 hPa 3.7 m/s 13.9 mm 11.3° 1011.9 hPa 3.7 m/s 13.9 mm
08:00 13.6° 1012.0 hPa 4.1 m/s 13.9 mm 13.6° 1012.0 hPa 4.1 m/s 13.9 mm
11:00 18.9° 1011.4 hPa 4.0 m/s 13.9 mm 18.9° 1011.4 hPa 4.0 m/s 13.9 mm
14:00 22.2° 1010.2 hPa 4.2 m/s 13.9 mm 22.2° 1010.2 hPa 4.2 m/s 13.9 mm
17:00 23.3° 1008.6 hPa 3.5 m/s 13.9 mm 23.3° 1008.6 hPa 3.5 m/s 13.9 mm
20:00 19.2° 1007.7 hPa 3.6 m/s 14.6 mm 19.2° 1007.7 hPa 3.6 m/s 14.6 mm
23:00 15.8° 1008.5 hPa 2.9 m/s 15.4 mm 15.8° 1008.5 hPa 2.9 m/s 15.4 mm
 06:10     21:31    Daglengte: 15:21 Zaterdag 31 Jul
02:00 13.8° 1008.2 hPa 3.2 m/s 15.4 mm 13.8° 1008.2 hPa 3.2 m/s 15.4 mm
05:00 12.2° 1006.7 hPa 3.8 m/s 15.4 mm 12.2° 1006.7 hPa 3.8 m/s 15.4 mm
08:00 14.0° 1005.8 hPa 6.5 m/s 15.4 mm 14.0° 1005.8 hPa 6.5 m/s 15.4 mm
11:00 14.1° 1004.9 hPa 9.3 m/s 15.9 mm 14.1° 1004.9 hPa 9.3 m/s 15.9 mm
14:00 17.7° 1004.9 hPa 9.7 m/s 17.4 mm 17.7° 1004.9 hPa 9.7 m/s 17.4 mm
17:00 20.4° 1005.9 hPa 9.1 m/s 18.1 mm 20.4° 1005.9 hPa 9.1 m/s 18.1 mm
20:00 18.6° 1007.4 hPa 4.6 m/s 18.1 mm 18.6° 1007.4 hPa 4.6 m/s 18.1 mm
23:00 14.3° 1008.5 hPa 4.0 m/s 18.1 mm 14.3° 1008.5 hPa 4.0 m/s 18.1 mm
 06:12     21:29    Daglengte: 15:17 Zondag 01 Aug
02:00 13.5° 1008.1 hPa 4.5 m/s 18.1 mm 13.5° 1008.1 hPa 4.5 m/s 18.1 mm
05:00 12.6° 1007.4 hPa 4.8 m/s 18.2 mm 12.6° 1007.4 hPa 4.8 m/s 18.2 mm
08:00 14.3° 1007.3 hPa 6.0 m/s 18.2 mm 14.3° 1007.3 hPa 6.0 m/s 18.2 mm
11:00 18.0° 1008.1 hPa 7.0 m/s 18.6 mm 18.0° 1008.1 hPa 7.0 m/s 18.6 mm
14:00 19.3° 1008.8 hPa 6.6 m/s 18.7 mm 19.3° 1008.8 hPa 6.6 m/s 18.7 mm
17:00 18.8° 1009.7 hPa 7.1 m/s 18.8 mm 18.8° 1009.7 hPa 7.1 m/s 18.8 mm
20:00 16.4° 1011.2 hPa 4.4 m/s 19.3 mm 16.4° 1011.2 hPa 4.4 m/s 19.3 mm
23:00 12.6° 1013.2 hPa 2.6 m/s 19.3 mm 12.6° 1013.2 hPa 2.6 m/s 19.3 mm
 06:13     21:27    Daglengte: 15:14 Maandag 02 Aug
02:00 11.4° 1014.2 hPa 2.2 m/s 19.3 mm 11.4° 1014.2 hPa 2.2 m/s 19.3 mm
05:00 10.5° 1014.7 hPa 2.4 m/s 19.3 mm 10.5° 1014.7 hPa 2.4 m/s 19.3 mm
08:00 12.8° 1015.6 hPa 2.1 m/s 19.3 mm 12.8° 1015.6 hPa 2.1 m/s 19.3 mm
11:00 15.2° 1016.8 hPa 2.5 m/s 19.3 mm 15.2° 1016.8 hPa 2.5 m/s 19.3 mm
14:00 17.4° 1016.4 hPa 0.8 m/s 19.5 mm 17.4° 1016.4 hPa 0.8 m/s 19.5 mm
20:00 18.1° 1015.4 hPa 0.7 m/s 19.9 mm 18.1° 1015.4 hPa 0.7 m/s 19.9 mm
 06:15     21:26    Daglengte: 15:11 Dinsdag 03 Aug
02:00 12.0° 1016.1 hPa 2.4 m/s 20.4 mm 12.0° 1016.1 hPa 2.4 m/s 20.4 mm
08:00 12.2° 1016.5 hPa 3.9 m/s 20.4 mm 12.2° 1016.5 hPa 3.9 m/s 20.4 mm
14:00 21.6° 1015.7 hPa 5.4 m/s 20.4 mm 21.6° 1015.7 hPa 5.4 m/s 20.4 mm
20:00 19.9° 1014.4 hPa 3.9 m/s 20.4 mm 19.9° 1014.4 hPa 3.9 m/s 20.4 mm
 06:16     21:24    Daglengte: 15:08 Woensdag 04 Aug
02:00 14.4° 1013.7 hPa 4.0 m/s 20.4 mm 14.4° 1013.7 hPa 4.0 m/s 20.4 mm
08:00 15.3° 1012.1 hPa 4.9 m/s 20.4 mm 15.3° 1012.1 hPa 4.9 m/s 20.4 mm
14:00 21.9° 1010.5 hPa 8.4 m/s 20.4 mm 21.9° 1010.5 hPa 8.4 m/s 20.4 mm
20:00 19.4° 1010.0 hPa 7.5 m/s 21.2 mm 19.4° 1010.0 hPa 7.5 m/s 21.2 mm
 06:18     21:22    Daglengte: 15:04 Donderdag 05 Aug
02:00 14.0° 1010.4 hPa 5.1 m/s 21.2 mm 14.0° 1010.4 hPa 5.1 m/s 21.2 mm
08:00 14.3° 1009.3 hPa 5.2 m/s 21.2 mm 14.3° 1009.3 hPa 5.2 m/s 21.2 mm
14:00 20.4° 1013.4 hPa 3.2 m/s 2.0 mm
20:00 19.0° 1012.7 hPa 2.4 m/s 1.4 mm
 06:19     21:21    Daglengte: 15:02 Vrijdag 06 Aug
02:00 14.5° 1012.9 hPa 2.7 m/s 0.4 mm
08:00 14.9° 1012.6 hPa 3.7 m/s 0.5 mm
14:00 20.8° 1013.0 hPa 4.9 m/s 0.7 mm
20:00 18.7° 1013.0 hPa 3.5 m/s 1.2 mm
 06:21     21:19    Daglengte: 14:58 Zaterdag 07 Aug
02:00 14.0° 1013.9 hPa 3.0 m/s 0.1 mm
08:00 14.6° 1013.6 hPa 3.4 m/s 0.7 mm
14:00 20.7° 1013.4 hPa 4.1 m/s 1.3 mm
20:00 18.6° 1013.1 hPa 3.0 m/s 1.3 mm
 06:22     21:17    Daglengte: 14:55 Zondag 08 Aug
02:00 14.4° 1013.7 hPa 2.3 m/s 0.7 mm
08:00 15.1° 1013.5 hPa 3.0 m/s 0.4 mm
14:00 20.4° 1013.9 hPa 3.9 m/s 1.2 mm
20:00 18.9° 1014.0 hPa 2.9 m/s 0.6 mm
 06:24     21:15    Daglengte: 14:51 Maandag 09 Aug
02:00 14.1° 1015.6 hPa 2.2 m/s 0.1 mm
08:00 14.5° 1016.1 hPa 2.7 m/s 0.2 mm
14:00 21.1° 1016.8 hPa 3.3 m/s 0.3 mm
20:00 19.4° 1016.5 hPa 2.5 m/s 0.8 mm
 06:25     21:13    Daglengte: 14:48 Dinsdag 10 Aug
02:00 14.5° 1017.5 hPa 1.7 m/s 0.3 mm
08:00 15.1° 1017.5 hPa 2.0 m/s 0.1 mm
14:00 21.7° 1017.7 hPa 3.0 m/s 0.4 mm
FMI Hirlam - 7.5 km EWN WRFDA - 12 km DWD ICON - 7 km GFS - 25 km Basiskaart






























































Updatetijd (Europe/Amsterdam) Resolutie Lengte Stap
FMI Hirlam 14:00, 20:00, 02:00, 08:00 7.5 km 49h 1h
EWN WRFDA 10:30, 16:30, 22:30, 04:30 12 km 73h 1h
DWD ICON 11:45, 17:45, 23:45, 05:45 7 km 75h 1h
GFS 14:15, 20:15, 02:15, 08:15 25 km 237h 3h
30+ mm
25-30 mm
20-25 mm
15-20 mm
10-15 mm
6-10 mm
4-6 mm
2-4 mm
1-2 mm
0.5-1 mm
0.2-0.5 mm
0.1-0.2 mm
30+ mm
25-30 mm
20-25 mm
15-20 mm
10-15 mm
6-10 mm
4-6 mm
2-4 mm
1-2 mm
0.5-1 mm
0.2-0.5 mm
0.1-0.2 mm
Sneeuwval
Natte sneeuw
Hagel
Vorst
30+ mm
25-30 mm
20-25 mm
15-20 mm
10-15 mm
6-10 mm
4-6 mm
2-4 mm
1-2 mm
0.5-1 mm
0.2-0.5 mm
0.1-0.2 mm
Sneeuwval
Natte sneeuw
Hagel
Vorst